This is the latest recevied weather packets stored in our database for station/object KH6DH-13. If no packets are shown the sender has not sent any weather packets the latest 10 day(s).
| Time | Temp. | Humidity | Pressure | Rain* | Wind** | Luminosity | Snow |
|---|---|---|---|---|---|---|---|
| 1788408828 | 28.89° C | - | - | 0 mm | 1.79 m/s, 122° | - | - |
| 1788408227 | 30° C | - | - | 0 mm | 2.24 m/s, 146° | - | - |
| 1788407626 | 30° C | - | - | 0 mm | 1.34 m/s, 169° | - | - |
| 1788407025 | 30° C | - | - | 0 mm | 1.79 m/s, 83° | - | - |
| 1788406424 | 29.44° C | - | - | 0 mm | 1.34 m/s, 149° | - | - |
| 1788405823 | 29.44° C | - | - | 0 mm | 0.45 m/s, 51° | - | - |
| 1788405222 | 30° C | - | - | 0 mm | 3.58 m/s, 59° | - | - |
| 1788404621 | 30° C | - | - | 0 mm | 0.89 m/s, 339° | - | - |
| 1788404020 | 29.44° C | - | - | 0 mm | 2.68 m/s, 117° | - | - |
| 1788403419 | 29.44° C | - | - | 0 mm | 1.79 m/s, 120° | - | - |
| 1788402818 | 30° C | - | - | 0 mm | 1.79 m/s, 111° | - | - |
| 1788402217 | 29.44° C | - | - | 0 mm | 0.45 m/s, 243° | - | - |
| 1788401616 | 29.44° C | - | - | 0 mm | 1.79 m/s, 27° | - | - |
| 1788401015 | 30° C | - | - | 0 mm | 2.68 m/s, 214° | - | - |
| 1788400414 | 30.56° C | - | - | 0 mm | 1.79 m/s, 98° | - | - |
| 1788399813 | 30.56° C | - | - | 0 mm | 3.13 m/s, 96° | - | - |
| 1788399212 | 30.56° C | - | - | 0 mm | 2.24 m/s, 0° | - | - |
| 1788398611 | 30.56° C | - | - | 0 mm | 2.68 m/s, 58° | - | - |
| 1788398010 | 30.56° C | - | - | 0 mm | 3.13 m/s, 97° | - | - |
| 1788397409 | 30.56° C | - | - | 0 mm | 3.58 m/s, 80° | - | - |
| 1788396808 | 30.56° C | - | - | 0 mm | 2.68 m/s, 31° | - | - |
| 1788396207 | 30.56° C | - | - | 0 mm | 2.24 m/s, 79° | - | - |
| 1788395606 | 30.56° C | - | - | 0 mm | 2.24 m/s, 107° | - | - |
| 1788395005 | 30.56° C | - | - | 0 mm | 2.68 m/s, 83° | - | - |
| 1788394404 | 30.56° C | - | - | 0 mm | 1.34 m/s, 110° | - | - |
* Rain latest hour (hover to see other rain measurements)
** Current wind speed in m/s (hover to see current wind gust speed)